Location: Albuquerque Trailhead
(34.7934°N, 106.3736°W)
Time: 04:01:26
(UTC+00:00)

IRIDIUM 103 - Pass Details

Date: 20 June 2021
Orbit: 776 x 779 km, 86.4° (Epoch: 29 July)

Event Time Altitude Azimuth Distance (km) Brightness Sun altitude
Rises 09:40:19 0° 356° (N) 3,265 8.3 -21.4°
Reaches altitude 10° 09:42:40 10° 355° (N) 2,333 7.4 -21.1°
Maximum altitude 09:47:53 77° 270° (W) 800 4.2 -20.4°
Enters shadow 09:50:00 37° 191° (S) 1,194 4.8 -20.1°
